GSAT-8

Last updated on Tue Sep 22 2026 00:03:12 GMT+0000 (Coordinated Universal Time)

1 37605U 11022A 26264.49999073 .00000082 00000+0 00000+0 0 9995 2 37605 2.3721 80.5406 0006423 158.5643 356.3835 1.00270638 54186
UTC large
Height (km)
Speed (km/s)
/
Latitude / Longitude
Inclination (degrees)
Orbital Period (minutes)
Azimuth
Elevation
Range (km)
Doppler Factor

Next 0 passes for location: London (51.5072 / 0.1276)

No passes found over London.
GSAT-8